Temperature
20 20 20 21 21 19 18 17 18 18 18 18 18 17 18 19 21 21 22 23 23 23 23 23 23 23 22 22 21 21 20 20 20 20 19 19 19 19 18 18 18 17 17 17
21 21 21 21 20 20 20 19 18 18 18 18 17 17 17 18 19 20 21 22 23 23 23 23 23 23 23 22 22 21 21 20 20 20 19 19 19 19 18 18 18 17 17 17
19 20 21 20 20 19 19 18 18 18 18 16 15 15 15 16 18 19 20 21 22 22 22 23 23 23 22 22 21 21 21 20 20 20 19 19 19 19 18 18 18 18 17 17
17 19 20 19 18 19 18 17 16 16 16 15 15 14 14 16 17 18 19 20 21 21 22 22 22 22 22 21 21 20 20 20 19 19 19 19 19 18 18 18 18 17 17 17
16 18 18 19 18 17 17 17 16 15 15 15 16 16 15 15 16 17 18 19 20 20 20 21 21 21 20 20 19 19 19 19 18 18 18 18 18 18 18 17 17 17 17 16
15 18 18 19 18 18 18 17 17 15 15 16 16 15 14 14 16 17 17 18 18 19 19 19 19 19 19 18 18 17 17 17 17 17 17 17 17 17 16 16 16 16 16 16
15 16 17 18 17 18 17 17 17 16 16 16 14 14 14 15 15 16 16 17 17 18 17 17 17 17 17 16 16 15 15 15 16 16 16 16 15 15 15 15 15 15 15 15
14 16 17 17 17 16 16 17 17 16 16 16 15 15 15 15 15 15 15 16 16 16 16 15 15 16 16 15 14 14 14 14 14 14 14 14 14 14 13 13 13 13 13 13
14 15 16 16 17 17 17 17 17 17 16 16 15 14 14 14 15 15 15 15 15 15 15 14 14 14 14 13 13 13 13 13 12 12 12 12 12 12 12 12 12 12 12 12
14 14 15 16 17 17 17 17 17 17 16 16 15 15 14 14 14 14 14 14 14 14 13 13 13 12 12 12 11 11 11 11 11 11 11 11 11 11 11 11 10 10 11 11
14 14 15 16 16 17 17 17 17 16 16 16 15 15 14 14 14 14 13 13 13 13 12 12 12 11 11 11 11 11 10 10 10 10 10 10 10 10 9 9 9 9 9 9
15 15 14 15 16 16 17 17 16 16 15 15 15 14 14 14 13 13 13 12 12 12 11 11 11 10 10 10 10 10 10 10 9 9 9 9 9 9 9 9 9 9 9 9
16 16 16 15 16 16 16 16 15 15 15 14 14 14 14 13 13 12 12 12 11 11 11 10 10 10 10 10 9 9 9 9 9 9 9 8 8 8 8 8 9 9 9 8
15 15 14 14 14 15 15 14 14 14 14 14 14 13 13 13 12 12 12 11 11 11 10 10 10 10 9 9 9 9 9 9 8 8 8 8 8 7 7 7 7 7 8 8
14 15 14 14 14 14 14 14 14 14 13 13 13 13 13 12 12 11 11 11 10 10 10 10 10 9 9 9 9 9 9 8 8 8 8 7 7 7 6 6 6 6 6 6
13 14 13 13 13 13 13 14 14 13 13 13 13 12 12 12 11 11 11 10 10 10 10 10 9 9 9 9 9 8 8 8 7 7 7 7 6 6 6 5 5 5 5 5
13 13 13 13 13 13 13 13 13 13 13 12 12 12 11 11 11 11 10 10 10 10 10 10 9 9 9 9 8 8 8 7 7 7 6 6 5 5 4 4 4 4 4 4
13 13 13 13 13 12 12 12 12 12 12 12 12 11 11 11 11 11 10 10 10 10 10 9 9 9 8 8 8 7 7 7 6 6 5 5 4 3 3 3 3 3 3 3
13 13 12 12 12 12 12 12 12 12 12 11 11 11 11 11 10 10 10 10 10 10 9 9 9 8 8 7 7 7 6 6 5 4 4 3 3 2 2 2 2 2 2 2
12 12 12 12 12 12 12 11 11 11 11 11 11 11 11 10 10 10 10 10 10 9 9 8 8 8 7 6 6 5 5 4 4 3 2 2 2 1 1 1 1 1 2 2
11 11 11 11 11 11 11 11 11 11 11 11 11 10 10 10 10 10 10 9 9 9 8 8 7 6 6 5 5 4 4 3 2 2 1 1 1 1 1 1 1 1 1 1
11 11 11 11 11 11 11 11 11 11 11 10 10 10 10 10 10 9 9 9 8 8 7 6 6 5 5 4 4 3 2 2 1 0 0 0 -0 -0 -0 0 0 0 0 1
10 10 11 11 11 11 11 11 10 10 10 10 10 9 9 9 9 8 8 8 7 7 6 5 5 4 3 3 2 2 1 1 0 -0 -1 -1 -1 -1 -1 -0 -0 -0 0 0
10 10 10 10 10 10 10 10 10 10 9 9 9 9 8 8 8 8 7 7 6 5 5 4 3 3 2 2 1 1 0 -0 -1 -1 -1 -1 -1 -1 -1 -1 -0 -0 -0 0
9 9 9 10 9 9 9 9 9 9 9 8 8 8 8 7 7 6 6 5 5 4 4 3 2 2 1 1 0 -0 -0 -1 -1 -1 -1 -1 -1 -1 -1 -1 -1 -0 -0 0
9 9 9 9 8 8 8 8 8 8 7 7 7 7 7 6 6 5 5 4 4 3 2 2 1 1 0 -0 -0 -1 -1 -1 -1 -1 -1 -1 -1 -1 -1 -1 -1 -0 -0 -0
8 8 8 8 7 7 7 7 7 7 6 6 6 6 6 5 5 4 4 3 3 2 1 1 0 0 -0 -1 -1 -1 -1 -1 -1 -1 -1 -1 -1 -1 -1 -1 -1 -1 -0 -0
Wind_Speed
6 4 3 5 5 6 8 8 9 8 8 8 7 6 6 4 2 2 4 5 8 9 9 8 8 9 9 10 9 10 10 12 13 12 11 10 10 11 10 10 11 10 10 10
2 2 3 4 5 5 6 5 7 6 7 4 4 2 3 3 2 1 1 2 3 4 5 7 8 9 9 9 8 9 10 12 10 8 9 10 11 10 10 11 10 10 11 11
3 2 2 5 6 6 4 4 6 7 5 1 3 6 6 6 6 5 4 3 2 1 2 3 4 5 6 6 5 6 8 7 7 7 9 10 9 9 11 11 10 11 12 11
1 1 6 7 2 4 4 2 3 3 1 3 5 5 7 8 7 8 8 7 6 5 4 3 2 1 2 3 4 4 4 5 5 5 7 6 7 10 10 9 9 10 11 12
4 2 6 5 2 4 4 3 3 4 4 4 5 5 9 10 9 9 8 7 7 8 7 8 7 5 6 6 5 3 1 2 2 3 5 5 8 10 8 7 9 10 8 11
4 3 6 7 2 3 3 4 4 5 4 2 2 4 3 5 8 10 10 9 10 10 11 13 10 8 10 9 8 6 5 4 3 2 3 5 6 7 6 6 9 8 10 11
4 5 8 5 1 4 4 7 3 5 4 4 4 5 4 4 8 9 9 10 11 13 13 11 9 11 12 11 10 7 6 6 6 5 3 3 4 3 4 5 6 8 10 10
5 3 7 3 5 6 6 1 4 5 5 8 10 10 8 7 8 9 9 10 11 11 11 9 8 11 12 9 6 6 7 8 8 7 6 6 5 5 4 4 6 7 8 9
8 7 5 3 5 3 3 4 4 5 6 10 10 9 8 7 7 7 8 8 7 9 9 8 8 8 9 6 5 6 8 8 7 7 7 6 5 6 5 4 5 6 7 8
4 7 5 4 3 2 3 4 5 7 10 11 11 10 9 7 6 6 6 6 5 7 8 7 6 7 5 4 5 6 6 6 6 6 7 7 5 5 5 5 6 6 7 8
5 6 4 3 4 4 5 7 9 10 10 11 13 10 8 7 6 5 5 4 4 5 5 4 4 5 4 4 4 5 5 5 5 5 5 6 6 5 5 5 6 7 7 8
7 7 5 3 3 6 8 9 11 13 10 9 10 10 8 7 5 4 4 3 3 3 2 1 2 3 4 4 3 3 4 5 4 5 5 5 6 8 8 9 12 13 12 11
3 1 3 4 6 7 8 10 11 12 12 10 8 8 8 5 4 4 3 3 2 1 1 1 2 3 4 4 3 2 3 5 4 5 5 6 6 7 9 11 12 14 15 15
3 6 6 5 7 9 12 12 12 11 9 9 7 7 7 6 4 4 2 1 1 1 1 2 3 5 5 4 3 4 4 5 6 5 6 6 7 7 8 10 11 11 12 15
8 8 9 10 11 11 10 11 12 9 8 7 6 6 6 5 4 2 1 1 0 1 3 3 4 6 6 4 4 5 5 5 5 5 6 6 7 8 8 10 10 11 11 12
12 14 15 14 13 11 10 10 9 7 6 5 4 3 3 3 2 1 1 1 1 3 4 5 6 6 5 4 4 4 5 8 8 6 6 7 8 9 9 10 11 11 11 12
12 10 11 12 11 9 7 6 5 4 3 3 3 2 2 1 0 3 4 3 3 4 5 5 5 5 4 4 4 4 5 6 9 7 6 7 8 9 10 10 11 11 11 13
9 9 10 10 9 8 6 4 2 2 2 2 1 1 1 2 3 5 5 4 4 5 5 4 4 4 4 5 4 4 4 5 6 7 7 8 9 9 9 10 11 12 12 13
11 11 9 9 7 6 3 2 2 2 1 0 0 2 3 4 4 5 4 3 4 5 5 4 5 5 5 6 6 4 5 6 6 7 7 9 9 9 10 10 11 11 12 11
10 9 7 5 4 3 2 2 2 2 2 1 1 2 4 5 4 4 3 3 3 3 3 3 4 4 5 6 7 5 5 6 7 7 8 8 9 10 10 11 11 11 11 11
7 5 3 1 1 1 1 1 1 3 3 2 2 3 5 5 4 2 1 3 3 2 2 4 4 4 4 5 6 5 5 6 7 7 8 9 9 10 10 11 11 11 11 11
2 1 2 2 2 3 3 2 2 3 3 3 3 3 3 3 2 1 1 1 1 3 3 3 3 5 6 6 5 5 6 7 7 8 8 9 9 10 10 11 11 11 11 11
3 3 3 4 4 4 4 3 3 2 3 3 3 2 2 2 1 1 1 1 2 4 4 4 5 7 8 6 5 6 7 8 8 8 9 9 9 10 10 11 11 11 10 10
3 4 4 4 2 2 3 4 4 3 2 2 2 2 1 0 1 1 1 3 4 5 4 5 7 8 7 5 6 6 7 8 8 9 9 9 9 9 10 10 10 10 10 12
3 3 3 3 2 2 3 3 3 3 3 2 3 3 2 1 1 2 3 4 6 6 5 6 9 9 6 5 6 7 7 8 9 9 9 9 10 10 10 10 10 10 10 10
2 2 2 2 2 2 2 2 2 2 2 1 2 2 3 3 4 4 4 5 6 6 5 5 6 6 6 6 7 7 7 8 9 9 9 9 10 10 10 11 12 10 10 10
3 3 3 3 3 3 2 2 2 2 1 0 1 2 2 3 4 4 5 5 5 5 4 4 5 5 6 6 6 7 7 8 8 8 9 9 9 9 10 11 10 10 10 10
Wind_Direction
230 233 188 215 221 184 188 197 199 231 231 262 282 282 283 278 251 208 219 215 211 212 215 212 210 209 208 210 200 193 193 205 215 216 213 214 215 215 215 215 220 220 222 227
270 242 211 240 242 217 210 211 224 244 256 262 298 319 359 4 48 73 264 252 237 224 215 211 211 211 208 209 200 189 201 216 222 216 217 221 222 219 218 220 221 219 224 228
249 311 23 264 240 204 202 204 196 217 236 318 37 37 23 21 43 40 21 25 24 298 254 244 231 212 210 212 183 185 209 222 220 215 223 228 228 225 226 226 222 224 228 227
156 71 236 248 289 177 163 215 227 230 220 135 114 92 50 34 49 47 34 33 32 30 27 11 16 81 120 111 135 174 214 237 238 230 235 235 227 231 233 228 226 232 234 232
131 205 273 285 215 158 165 243 207 186 177 165 160 84 42 29 43 52 48 43 45 43 46 46 44 56 81 77 78 76 359 307 285 244 240 239 238 241 237 230 234 234 237 236
129 175 243 254 200 149 115 276 210 179 176 184 123 86 34 16 43 48 48 51 52 51 52 51 44 60 70 63 56 38 16 1 346 296 257 253 254 255 247 238 247 250 249 245
160 215 260 255 147 118 173 243 189 170 156 119 109 130 127 65 56 55 52 56 59 59 55 46 44 65 66 58 46 29 30 32 23 8 334 309 304 288 275 263 263 260 260 258
151 198 259 210 139 179 215 193 134 136 126 113 113 109 100 82 68 63 61 59 64 68 59 42 43 65 65 52 30 29 36 34 22 12 8 6 351 332 316 298 286 281 278 278
189 214 242 220 210 216 161 140 141 141 132 125 117 111 101 90 82 72 70 66 65 77 68 47 39 58 64 33 20 36 39 30 16 11 5 358 355 346 337 328 312 301 293 289
243 263 248 239 231 204 156 137 135 134 128 125 120 114 107 100 91 82 76 77 75 78 72 51 35 46 51 26 28 45 38 19 8 6 358 354 351 343 334 325 316 311 306 300
251 272 281 248 203 165 125 115 115 115 117 124 121 117 115 109 99 95 89 80 80 85 80 53 27 28 19 17 31 37 23 6 357 353 345 339 334 319 311 292 288 294 294 293
229 231 195 216 150 138 125 123 122 116 103 105 114 117 114 110 111 109 104 97 94 92 89 36 8 2 353 356 15 21 2 347 338 332 330 329 328 324 310 299 301 296 280 277
233 144 123 94 90 98 106 108 109 111 115 111 106 115 120 120 120 115 112 116 136 168 221 297 318 323 325 329 337 341 321 314 313 317 320 322 323 321 320 319 312 305 300 296
105 102 83 73 90 93 99 100 97 96 102 111 115 115 115 114 114 116 130 188 202 220 277 297 305 305 306 314 313 310 308 310 313 306 308 311 312 312 310 311 315 314 311 304
59 88 105 97 89 88 93 101 100 98 99 97 105 115 120 124 131 154 210 228 183 311 308 309 305 301 307 315 313 311 313 311 309 307 308 309 311 312 311 309 308 308 311 312
88 87 92 92 90 90 94 100 104 105 106 106 111 124 138 146 155 218 275 261 269 292 297 302 297 298 313 323 322 316 312 319 325 319 320 322 323 321 318 315 313 312 312 314
97 96 99 99 94 90 87 91 105 116 120 129 155 159 142 128 317 297 292 288 277 280 290 293 295 308 324 325 320 317 318 323 332 330 325 324 324 322 319 316 314 313 311 311
90 102 107 111 109 100 90 85 108 148 177 201 163 139 203 243 265 277 289 308 319 317 315 310 312 328 339 341 341 332 328 327 330 327 326 325 323 320 318 316 317 317 316 316
85 89 91 96 104 115 128 161 212 230 246 229 205 264 271 269 268 279 296 310 306 301 310 335 355 5 357 354 0 350 342 338 336 333 330 324 323 322 320 319 318 317 317 318
72 76 81 84 97 119 170 227 247 279 293 272 272 290 293 289 286 291 297 290 278 270 296 338 5 13 5 1 9 2 354 347 340 335 332 328 325 323 322 321 321 320 321 321
64 60 57 48 14 311 289 295 296 298 305 293 257 262 273 287 297 288 281 294 312 351 22 34 34 19 11 10 12 5 357 349 342 337 332 329 326 325 325 325 325 324 324 325
29 357 332 328 325 314 317 326 311 302 303 297 282 274 279 294 313 337 291 251 328 51 54 41 31 28 23 18 9 2 355 348 342 336 333 330 328 326 326 326 325 325 325 324
344 333 327 321 309 302 321 333 323 300 285 286 289 285 272 275 280 263 311 6 76 77 64 49 40 35 29 19 7 360 354 349 343 338 333 329 327 325 324 323 323 323 324 324
322 316 313 314 326 340 331 325 330 321 309 307 311 299 265 353 3 15 86 96 93 84 69 55 47 36 26 16 6 359 354 348 342 337 332 329 327 326 325 324 323 323 323 324
310 314 324 338 338 311 298 314 333 349 2 1 1 8 19 75 123 86 91 92 88 80 68 48 40 32 24 12 5 358 352 347 344 339 336 334 333 332 331 330 330 329 329 329
340 333 328 319 301 297 301 310 314 318 331 355 7 15 36 59 83 93 93 89 82 74 60 42 30 24 17 9 4 0 355 349 347 345 342 339 338 338 337 337 336 336 334 333
359 356 353 352 347 339 329 322 314 310 308 308 9 29 60 74 83 90 90 86 79 67 52 37 29 23 17 13 10 6 1 356 354 351 348 346 346 344 342 341 341 340 340 340
Height
1491 1489 1490 1491 1491 1494 1501 1502 1507 1500 1497 1488 1483 1481 1478 1477 1477 1478 1480 1483 1486 1489 1492 1495 1498 1501 1504 1507 1510 1512 1514 1516 1518 1520 1521 1523 1524 1525 1526 1527 1528 1528 1528 1528
1489 1486 1488 1490 1488 1488 1490 1491 1494 1493 1491 1483 1482 1480 1478 1476 1476 1477 1478 1480 1483 1486 1488 1491 1494 1497 1500 1502 1505 1508 1510 1512 1514 1516 1517 1518 1520 1521 1522 1522 1523 1523 1523 1523
1498 1491 1490 1496 1487 1486 1487 1486 1488 1491 1486 1482 1483 1481 1480 1477 1477 1478 1478 1479 1481 1483 1486 1488 1491 1493 1496 1499 1501 1504 1506 1508 1509 1511 1512 1513 1515 1516 1516 1517 1518 1518 1518 1518
1501 1497 1505 1490 1480 1479 1484 1484 1484 1484 1483 1482 1483 1483 1482 1480 1478 1479 1480 1480 1481 1483 1485 1487 1489 1491 1493 1496 1498 1500 1502 1503 1505 1506 1507 1508 1509 1510 1510 1511 1511 1511 1511 1511
1505 1505 1498 1486 1480 1481 1484 1484 1481 1482 1483 1482 1482 1482 1483 1483 1482 1481 1482 1482 1482 1484 1486 1487 1488 1490 1491 1493 1495 1496 1498 1499 1500 1501 1501 1502 1503 1503 1503 1503 1503 1502 1502 1502
1503 1503 1504 1486 1477 1477 1482 1486 1479 1479 1480 1480 1480 1486 1490 1487 1485 1485 1485 1485 1485 1487 1487 1487 1488 1490 1490 1491 1492 1493 1494 1495 1495 1496 1496 1496 1496 1495 1495 1494 1494 1493 1493 1493
1501 1502 1493 1478 1476 1478 1491 1485 1476 1477 1478 1479 1481 1485 1489 1489 1488 1488 1489 1488 1489 1490 1490 1491 1491 1491 1490 1490 1491 1492 1492 1492 1492 1492 1491 1490 1489 1488 1487 1486 1485 1484 1483 1483
1501 1502 1494 1474 1475 1479 1478 1474 1474 1476 1478 1479 1481 1485 1488 1490 1491 1492 1493 1492 1492 1493 1493 1494 1494 1493 1492 1491 1492 1492 1492 1491 1490 1489 1487 1485 1483 1482 1480 1478 1477 1476 1474 1473
1487 1485 1474 1472 1471 1472 1472 1473 1474 1477 1479 1480 1483 1486 1489 1491 1493 1494 1495 1496 1496 1496 1496 1496 1495 1495 1493 1494 1493 1492 1491 1489 1488 1486 1484 1482 1480 1478 1476 1474 1471 1469 1468 1465
1479 1472 1469 1469 1469 1470 1471 1472 1474 1477 1479 1481 1484 1487 1491 1493 1495 1497 1498 1499 1499 1498 1498 1497 1497 1496 1495 1494 1493 1491 1490 1488 1486 1484 1481 1479 1477 1475 1472 1469 1467 1465 1462 1459
1475 1469 1467 1466 1467 1468 1470 1472 1475 1477 1480 1483 1486 1490 1493 1495 1497 1499 1499 1500 1500 1499 1499 1498 1498 1497 1495 1494 1492 1490 1488 1486 1484 1481 1479 1476 1474 1472 1469 1467 1464 1461 1457 1454
1470 1464 1465 1465 1466 1469 1471 1473 1476 1478 1482 1486 1489 1492 1495 1497 1499 1500 1500 1500 1500 1500 1499 1499 1497 1496 1494 1493 1491 1488 1486 1484 1481 1479 1476 1473 1470 1467 1464 1462 1459 1456 1452 1449
1463 1463 1464 1465 1468 1470 1473 1476 1479 1481 1484 1488 1492 1494 1496 1498 1499 1500 1501 1501 1500 1500 1499 1498 1496 1495 1493 1491 1489 1486 1484 1481 1478 1475 1472 1469 1465 1461 1457 1454 1452 1449 1445 1441
1462 1463 1465 1467 1470 1473 1476 1479 1483 1486 1489 1492 1494 1497 1498 1499 1500 1500 1500 1500 1499 1498 1497 1496 1494 1493 1491 1489 1486 1484 1481 1478 1475 1472 1468 1465 1461 1457 1452 1447 1442 1438 1436 1433
1463 1464 1466 1470 1474 1478 1481 1485 1487 1490 1493 1495 1497 1498 1499 1499 1499 1500 1499 1499 1498 1497 1495 1494 1492 1490 1488 1486 1483 1480 1477 1474 1471 1468 1464 1460 1456 1452 1447 1442 1437 1432 1428 1424
1467 1468 1471 1475 1479 1483 1486 1489 1491 1494 1496 1497 1498 1499 1499 1499 1499 1498 1498 1497 1496 1494 1493 1491 1489 1487 1485 1482 1479 1477 1474 1471 1467 1463 1459 1455 1451 1446 1441 1436 1431 1427 1422 1418
1472 1475 1477 1481 1484 1487 1491 1493 1495 1496 1497 1498 1498 1498 1498 1498 1497 1497 1496 1495 1494 1492 1490 1488 1486 1484 1481 1479 1476 1473 1469 1466 1462 1458 1454 1450 1445 1440 1436 1431 1426 1422 1418 1414
1478 1480 1482 1485 1488 1491 1493 1496 1497 1497 1498 1498 1498 1497 1497 1496 1495 1495 1494 1493 1491 1490 1488 1485 1483 1481 1478 1475 1472 1468 1465 1461 1457 1453 1448 1444 1440 1436 1431 1427 1422 1417 1412 1408
1484 1486 1488 1490 1492 1494 1495 1496 1498 1498 1498 1497 1496 1496 1495 1494 1493 1492 1491 1490 1488 1486 1484 1482 1480 1477 1474 1471 1468 1464 1460 1456 1452 1448 1443 1439 1435 1431 1427 1422 1418 1413 1409 1404
1490 1491 1492 1494 1495 1496 1496 1497 1497 1497 1496 1495 1495 1494 1493 1492 1491 1490 1488 1487 1485 1483 1481 1478 1476 1473 1470 1467 1463 1459 1455 1451 1447 1443 1439 1435 1431 1427 1423 1419 1414 1410 1405 1401
1494 1495 1496 1496 1496 1497 1497 1497 1496 1496 1495 1494 1493 1492 1491 1490 1488 1487 1485 1483 1482 1480 1477 1475 1472 1469 1466 1463 1459 1455 1451 1447 1443 1439 1435 1431 1427 1423 1419 1415 1411 1406 1402 1397
1496 1497 1497 1497 1497 1496 1496 1495 1494 1493 1493 1492 1490 1489 1488 1487 1485 1483 1482 1480 1478 1476 1474 1471 1468 1466 1462 1459 1455 1451 1447 1444 1440 1436 1432 1428 1424 1420 1416 1412 1407 1403 1399 1394
1497 1497 1496 1496 1495 1495 1494 1493 1492 1491 1490 1489 1487 1486 1485 1483 1482 1480 1479 1477 1475 1473 1470 1468 1465 1462 1459 1456 1452 1448 1444 1441 1437 1433 1429 1426 1422 1417 1413 1409 1405 1400 1396 1392
1496 1496 1495 1494 1493 1492 1491 1490 1489 1488 1487 1486 1484 1483 1482 1480 1479 1477 1475 1473 1472 1470 1467 1465 1462 1459 1456 1453 1450 1446 1442 1439 1435 1431 1427 1423 1419 1415 1411 1406 1402 1398 1393 1389
1494 1494 1493 1492 1491 1490 1489 1487 1486 1485 1484 1483 1481 1480 1479 1477 1476 1474 1472 1471 1469 1467 1465 1462 1460 1458 1455 1452 1448 1445 1441 1437 1434 1430 1426 1422 1418 1413 1409 1404 1400 1396 1391 1387
1493 1492 1490 1489 1488 1487 1486 1484 1483 1482 1480 1479 1478 1477 1476 1474 1473 1471 1470 1468 1467 1465 1463 1461 1459 1457 1454 1451 1448 1444 1440 1437 1433 1429 1425 1421 1417 1412 1408 1403 1399 1395 1390 1386
1491 1489 1488 1487 1485 1484 1482 1481 1480 1479 1477 1476 1475 1474 1473 1472 1471 1469 1468 1467 1465 1464 1463 1461 1459 1457 1454 1451 1448 1444 1441 1437 1433 1429 1425 1421 1417 1413 1408 1404 1399 1395 1391 1386